Weather History for Andrews, NC

Change the Weather History Date:

Friday, January 24, 2014

  Actual Average (KTYS) Record (KTYS)
Temperature  
Mean Temperature 16 °F 38 °F  
Max Temperature 29 °F 48 °F 74 °F (1950)
Min Temperature 3 °F 29 °F -6 °F (1963)
Degree Days  
Heating Degree Days 49 27  
Month to date heating degree days 648  
Since 1 July heating degree days 2081  
Cooling Degree Days 0 0  
Month to date cooling degree days 0  
Year to date cooling degree days 0  
Moisture  
Dew Point -2 °F    
Average Humidity 52    
Maximum Humidity 79    
Minimum Humidity 22    
Precipitation  
Precipitation 0.00 in 0.14 in 2.39 in (2010)
Month to date precipitation 3.35  
Year to date precipitation 3.35  
Snow  
Snow 0.00 in 0.10 in - ()
Month to date snowfall 2.1  
Since 1 July snowfall 2.9  
Snow Depth -    
Sea Level Pressure  
Sea Level Pressure 30.41 in    
Wind  
Wind Speed 4 mph (North)    
Max Wind Speed 9 mph    
Max Gust Speed -    
Visibility 10 miles    
Events      
T = Trace of Precipitation, MM = Missing Value Source: NWS Daily Summary

Daily Weather History Graph

Daily Weather History Graph

Search for Another Location

Airport:

Trip Planner

Search our weather history database for the weather conditions in past years. The results will help you decide how hot, cold, wet, or windy it might be!

Date:

Astronomy

Jan. 24, 2014 Rise Set
Actual Time 7:39 AM EST 5:55 PM EST
Civil Twilight 7:12 AM EST 6:22 PM EST
Nautical Twilight 6:41 AM EST 6:53 PM EST
Astronomical Twilight 6:11 AM EST 7:23 PM EST
Moon 1:09 AM EST (1/24) 12:11 PM EST (1/24)
Length of Visible Light 11h 10m
Length of Day
10h 15m
Last Quarter, 45% of the Moon is Illuminated
Jan 24
Last Quarter
Jan 30
New
Feb 6
First Quarter
Feb 14
Full
Feb 22
Last Quarter

Hourly Weather History & Observations

Time (EST) Temp. Windchill Dew Point Humidity Pressure Visibility Wind Dir Wind Speed Gust Speed Precip Events Conditions
12:15 AM 11.3 °F -0.4 °F -4.2 °F 50% 30.46 in 10.0 mi NNE 8.1 mph - N/A   Clear
12:35 AM 11.3 °F -0.4 °F -4.2 °F 50% 30.47 in 10.0 mi NNE 8.1 mph - N/A   Clear
12:55 AM 11.3 °F 1.9 °F -4.0 °F 50% 30.48 in 10.0 mi NNE 5.8 mph - N/A   Clear
1:15 AM 11.5 °F 2.1 °F -3.8 °F 50% 30.49 in 10.0 mi NE 5.8 mph - N/A   Clear
1:35 AM 11.1 °F -0.6 °F -3.8 °F 51% 30.49 in 10.0 mi NE 8.1 mph - N/A   Clear
1:55 AM 10.4 °F -0.4 °F -3.5 °F 54% 30.50 in 10.0 mi NE 6.9 mph - N/A   Clear
2:15 AM 9.9 °F 1.6 °F -3.5 °F 55% 30.51 in 10.0 mi NNE 4.6 mph - N/A   Clear
2:35 AM 9.5 °F -0.3 °F -3.5 °F 56% 30.52 in 10.0 mi NE 5.8 mph - N/A   Clear
2:55 AM 8.8 °F 0.4 °F -2.4 °F 61% 30.53 in 10.0 mi NE 4.6 mph - N/A   Clear
3:15 AM 8.4 °F 1.8 °F -2.0 °F 63% 30.53 in 10.0 mi ENE 3.5 mph - N/A   Clear
3:35 AM 8.4 °F -1.6 °F -2.2 °F 62% 30.53 in 10.0 mi ENE 5.8 mph - N/A   Clear
3:55 AM 6.3 °F -2.6 °F -2.2 °F 68% 30.53 in 10.0 mi ENE 4.6 mph - N/A   Clear
4:15 AM 6.8 °F -0.1 °F -3.1 °F 64% 30.53 in 10.0 mi NNE 3.5 mph - N/A   Clear
4:35 AM 7.5 °F 0.8 °F -2.7 °F 63% 30.53 in 10.0 mi ENE 3.5 mph - N/A   Clear
4:55 AM 7.2 °F -3.0 °F -2.6 °F 64% 30.52 in 10.0 mi ENE 5.8 mph - N/A   Clear
5:15 AM 7.3 °F -5.2 °F -2.7 °F 63% 30.52 in 10.0 mi East 8.1 mph - N/A   Clear
5:35 AM 7.0 °F -5.7 °F -2.7 °F 64% 30.52 in 10.0 mi NNE 8.1 mph - N/A   Scattered Clouds
5:55 AM 6.8 °F -4.8 °F -3.1 °F 64% 30.51 in 10.0 mi NNE 6.9 mph - N/A   Clear
6:15 AM 5.7 °F -3.2 °F -3.1 °F 67% 30.50 in 10.0 mi NNE 4.6 mph - N/A   Clear
6:35 AM 5.7 °F -3.2 °F -3.1 °F 67% 30.50 in 10.0 mi NNE 4.6 mph - N/A   Clear
6:55 AM 4.6 °F -4.5 °F -3.1 °F 70% 30.49 in 10.0 mi North 4.6 mph - N/A   Clear
7:15 AM 4.5 °F -2.7 °F -3.1 °F 71% 30.49 in 10.0 mi NW 3.5 mph - N/A   Clear
7:35 AM 5.0 °F - -3.3 °F 69% 30.50 in 10.0 mi Calm Calm - N/A   Clear
7:55 AM 4.3 °F - -2.4 °F 74% 30.51 in 10.0 mi Calm Calm - N/A   Clear
8:15 AM 3.9 °F - -2.2 °F 76% 30.51 in 10.0 mi Calm Calm - N/A   Clear
8:35 AM 6.1 °F - -1.5 °F 71% 30.51 in 10.0 mi Calm Calm - N/A   Clear
8:55 AM 7.7 °F - -0.4 °F 70% 30.52 in 10.0 mi Calm Calm - N/A   Clear
9:15 AM 8.2 °F - -1.8 °F 64% 30.53 in 10.0 mi Calm Calm - N/A   Clear
9:35 AM 9.3 °F 2.8 °F -1.7 °F 61% 30.54 in 10.0 mi SW 3.5 mph - N/A   Clear
9:55 AM 10.9 °F 4.7 °F -1.5 °F 57% 30.54 in 10.0 mi WSW 3.5 mph - N/A   Clear
10:15 AM 11.8 °F 2.5 °F -2.2 °F 53% 30.55 in 10.0 mi SSW 5.8 mph - N/A   Clear
10:35 AM 13.3 °F 3.0 °F -1.8 °F 51% 30.55 in 10.0 mi West 6.9 mph - N/A   Clear
10:55 AM 14.5 °F 7.1 °F -0.6 °F 51% 30.55 in 10.0 mi South 4.6 mph - N/A   Clear
11:15 AM 15.6 °F 10.0 °F -1.3 °F 47% 30.54 in 10.0 mi SW 3.5 mph - N/A   Clear
11:35 AM 16.3 °F 9.2 °F -2.9 °F 43% 30.54 in 10.0 mi West 4.6 mph - N/A   Clear
11:55 AM 18.0 °F 12.7 °F -0.9 °F 44% 30.51 in 10.0 mi ENE 3.5 mph - N/A   Clear
12:15 PM 18.5 °F - -5.8 °F 34% 30.49 in 10.0 mi Calm Calm - N/A   Clear
12:35 PM 20.5 °F - -5.8 °F 31% 30.46 in 10.0 mi Calm Calm - N/A   Clear
12:55 PM 21.9 °F 15.7 °F -4.9 °F 31% 30.45 in 10.0 mi West 4.6 mph - N/A   Clear
1:15 PM 22.6 °F - -6.0 °F 28% 30.43 in 10.0 mi Calm Calm - N/A   Clear
1:35 PM 24.1 °F 18.2 °F -6.3 °F 26% 30.41 in 10.0 mi SW 4.6 mph - N/A   Clear
1:55 PM 26.1 °F 21.9 °F -5.8 °F 25% 30.39 in 10.0 mi SW 3.5 mph - N/A   Clear
2:15 PM 25.5 °F - -8.0 °F 23% 30.37 in 10.0 mi Calm Calm - N/A   Clear
2:35 PM 26.4 °F 22.4 °F -2.7 °F 28% 30.36 in 10.0 mi WSW 3.5 mph - N/A   Clear
2:55 PM 26.8 °F - -2.2 °F 29% 30.34 in 10.0 mi Calm Calm - N/A   Clear
3:15 PM 27.5 °F - -1.1 °F 29% 30.33 in 10.0 mi Calm Calm - N/A   Clear
3:35 PM 28.4 °F 21.2 °F -1.1 °F 28% 30.33 in 10.0 mi WNW 6.9 mph - N/A   Clear
3:55 PM 28.9 °F 20.4 °F -1.3 °F 27% 30.32 in 10.0 mi West 9.2 mph - N/A   Clear
4:15 PM 29.3 °F 20.8 °F -1.7 °F 26% 30.32 in 10.0 mi West 9.2 mph - N/A   Clear
4:35 PM 29.1 °F 20.6 °F -2.4 °F 26% 30.31 in 10.0 mi West 9.2 mph - N/A   Clear
4:55 PM 28.8 °F 20.9 °F -6.2 °F 22% 30.30 in 10.0 mi West 8.1 mph - N/A   Clear
5:15 PM 28.4 °F 20.4 °F -3.8 °F 25% 30.30 in 10.0 mi West 8.1 mph - N/A   Clear
5:35 PM 27.3 °F 22.0 °F -3.5 °F 26% 30.28 in 10.0 mi WSW 4.6 mph - N/A   Clear
5:55 PM 24.8 °F - -2.4 °F 31% 30.28 in 10.0 mi Calm Calm - N/A   Clear
6:15 PM 20.3 °F - 2.5 °F 46% 30.28 in 7.0 mi Calm Calm - N/A   Clear
6:35 PM 19.8 °F - 1.2 °F 45% 30.27 in 10.0 mi Calm Calm - N/A   Clear
6:55 PM 17.2 °F - 3.4 °F 55% 30.28 in 10.0 mi Calm Calm - N/A   Clear
7:15 PM 18.0 °F - 1.4 °F 48% 30.28 in 10.0 mi Calm Calm - N/A   Clear
7:35 PM 16.3 °F - 2.7 °F 55% 30.27 in 10.0 mi Calm Calm - N/A   Clear
7:55 PM 16.0 °F - 2.5 °F 55% 30.27 in 10.0 mi Calm Calm - N/A   Clear
8:15 PM 15.6 °F - 2.1 °F 55% 30.27 in 10.0 mi Calm Calm - N/A   Clear
8:35 PM 14.7 °F - 3.4 °F 61% 30.26 in 10.0 mi Calm Calm - N/A   Clear
8:55 PM 13.8 °F - 2.3 °F 60% 30.25 in 10.0 mi Calm Calm - N/A   Clear
9:15 PM 12.9 °F - 2.7 °F 64% 30.24 in 10.0 mi Calm Calm - N/A   Clear
9:35 PM 12.4 °F - 3.0 °F 66% 30.23 in 10.0 mi Calm Calm - N/A   Clear
9:55 PM 11.8 °F - 3.2 °F 68% 30.23 in 10.0 mi Calm Calm - N/A   Clear
10:15 PM 10.8 °F - 2.7 °F 70% 30.22 in 10.0 mi Calm Calm - N/A   Clear
10:35 PM 10.2 °F - 2.3 °F 70% 30.23 in 10.0 mi Calm Calm - N/A   Clear
10:55 PM 10.0 °F - 2.1 °F 70% 30.23 in 10.0 mi Calm Calm - N/A   Clear
11:15 PM 9.7 °F - 2.8 °F 74% 30.23 in 10.0 mi Calm Calm - N/A   Clear
11:35 PM 9.1 °F - 3.7 °F 79% 30.22 in 10.0 mi Calm Calm - N/A   Clear
11:55 PM 9.1 °F - 1.6 °F 71% 30.21 in 10.0 mi Calm Calm - N/A   Clear